contact:dominique.lefevre@mio.osupytheas.fr, maurice.libes@osupytheas.fr, didier.mallarino@osupytheas.fr
Project:EMSO http://www.emso-fr.org/EMSO-France
Depth: 2436.0 m
Title:EMSO Ligure Ouest : Data MII capteur AQUADOPP
Date,Latitude,Longitude,X_East,Y_North,Z_Up,Amplitude_X,Amplitude_Y,Amplitude_Z,Batterie,SoundSpeed,Heading,Pitch,Roll,Pressure,TIS,Speed,Direction
, degrees North, degrees East, m.s-1, m.s-1,m.s-1, 1, 1, 1, Volt, m.s-1, degree, degree, degree, dbar, degree_C, m.s-1, degree
2022-11-13T00:04:02,42.805,6.029,-0.027,0.038,0.006,101.0,103.0,101.0,13.4,1505.2,323.1,-0.8,1.8,2471.148,13.28,0.046,324.6
2022-11-13T00:07:03,42.805,6.029,0.005,0.025,0.014,103.0,104.0,100.0,13.3,1505.2,326.5,-0.8,1.8,2471.152,13.28,0.025,11.3
2022-11-13T00:10:03,42.805,6.029,-0.018,0.018,-0.012,103.0,102.0,101.0,13.3,1505.2,334.3,-0.8,1.8,2471.112,13.29,0.025,315.0
2022-11-13T00:13:03,42.805,6.029,-0.012,0.01,-0.018,101.0,103.0,102.0,13.4,1505.2,329.7,-0.8,1.8,2471.136,13.29,0.015,309.8
2022-11-13T00:16:03,42.805,6.029,-0.015,0.021,-0.003,101.0,102.0,101.0,13.4,1505.2,329.1,-0.7,1.8,2471.14,13.29,0.025,324.5
2022-11-13T00:19:03,42.805,6.029,-0.011,0.028,0.028,102.0,102.0,101.0,13.4,1505.2,321.6,-0.8,1.8,2471.129,13.29,0.03,338.6
2022-11-13T00:22:03,42.805,6.029,-0.01,0.017,0.017,102.0,103.0,101.0,13.4,1505.2,325.2,-0.8,1.8,2471.149,13.29,0.019,329.5
2022-11-13T00:25:03,42.805,6.029,-0.004,0.007,-0.01,102.0,103.0,101.0,13.4,1505.2,321.8,-0.8,1.8,2471.11,13.29,0.008,330.3
2022-11-13T00:28:03,42.805,6.029,-0.007,0.033,-0.01,102.0,102.0,100.0,13.4,1505.2,326.3,-0.8,1.8,2471.091,13.29,0.033,348.0
2022-11-13T00:31:03,42.805,6.029,-0.041,0.034,0.024,102.0,103.0,100.0,13.4,1505.2,320.7,-0.8,1.8,2471.119,13.29,0.053,309.7
2022-11-13T00:34:03,42.805,6.029,-0.026,0.014,-0.021,102.0,103.0,100.0,13.4,1505.2,322.5,-0.8,1.8,2471.075,13.29,0.029,298.3
2022-11-13T00:37:03,42.805,6.029,-0.042,0.026,0.011,103.0,102.0,100.0,13.4,1505.2,325.3,-0.7,1.8,2471.047,13.29,0.049,301.8
2022-11-13T00:40:03,42.805,6.029,-0.052,0.013,-0.01,101.0,102.0,101.0,13.4,1505.2,329.8,-0.8,1.8,2471.039,13.29,0.053,284.0
2022-11-13T00:43:03,42.805,6.029,-0.02,0.033,0.028,102.0,102.0,101.0,13.3,1505.2,327.3,-0.8,1.8,2471.08,13.29,0.038,328.8
2022-11-13T00:46:03,42.805,6.029,-0.013,0.024,0.022,102.0,102.0,101.0,13.4,1505.2,332.2,-0.8,1.8,2471.088,13.29,0.027,331.6
2022-11-13T00:49:03,42.805,6.029,-0.014,0.03,0.027,102.0,102.0,100.0,13.4,1505.2,329.1,-0.8,1.8,2471.115,13.29,0.033,335.0
2022-11-13T00:52:03,42.805,6.029,-0.033,0.019,-0.011,102.0,101.0,101.0,13.4,1505.2,332.7,-0.8,1.8,2471.096,13.29,0.038,299.9
2022-11-13T00:55:03,42.805,6.029,-0.015,0.028,0.012,102.0,102.0,100.0,13.4,1505.2,319.4,-0.7,1.8,2471.091,13.29,0.031,331.8
2022-11-13T00:58:03,42.805,6.029,-0.011,0.016,0.005,102.0,102.0,100.0,13.4,1505.2,323.5,-0.8,1.8,2471.058,13.29,0.019,325.5
2022-11-13T01:04:03,42.805,6.029,-0.04,0.053,-0.001,102.0,103.0,101.0,13.3,1505.2,323.7,-0.8,1.8,2471.157,13.28,0.066,323.0
2022-11-13T01:07:03,42.805,6.029,0.002,0.001,-0.003,103.0,103.0,101.0,13.4,1505.2,321.2,-0.7,1.8,2471.105,13.29,0.002,63.4
2022-11-13T01:10:03,42.805,6.029,-0.02,0.017,-0.023,102.0,103.0,101.0,13.4,1505.2,334.8,-0.8,1.8,2471.12,13.29,0.026,310.4
2022-11-13T01:13:03,42.805,6.029,-0.022,0.015,0.003,102.0,102.0,101.0,13.4,1505.2,321.3,-0.7,1.8,2471.079,13.29,0.026,304.3
2022-11-13T01:16:03,42.805,6.029,-0.017,0.031,0.033,102.0,102.0,100.0,13.4,1505.2,321.1,-0.7,1.8,2471.084,13.29,0.035,331.3
2022-11-13T01:19:03,42.805,6.029,-0.021,0.01,0.001,103.0,103.0,100.0,13.4,1505.2,335.8,-0.8,1.8,2471.102,13.29,0.023,295.5
2022-11-13T01:22:03,42.805,6.029,-0.024,0.006,0.005,101.0,103.0,101.0,13.4,1505.2,324.1,-0.8,1.8,2471.098,13.29,0.024,284.0
2022-11-13T01:25:03,42.805,6.029,-0.007,0.021,0.016,102.0,104.0,100.0,13.4,1505.2,327.6,-0.7,1.8,2471.094,13.29,0.022,341.6
2022-11-13T01:28:03,42.805,6.029,-0.015,0.037,-0.009,102.0,103.0,101.0,13.4,1505.2,329.3,-0.7,1.8,2471.095,13.29,0.039,337.9
2022-11-13T01:31:03,42.805,6.029,-0.013,0.029,0.005,103.0,104.0,100.0,13.3,1505.2,328.5,-0.7,1.8,2471.098,13.29,0.031,335.9
2022-11-13T01:34:03,42.805,6.029,-0.029,0.017,0.007,102.0,103.0,100.0,13.4,1505.2,325.9,-0.7,1.8,2471.122,13.29,0.033,300.4
2022-11-13T01:37:03,42.805,6.029,-0.036,0.027,-0.001,101.0,104.0,101.0,13.4,1505.2,322.9,-0.8,1.8,2471.079,13.29,0.045,306.9
2022-11-13T01:40:03,42.805,6.029,-0.02,0.014,0.0,104.0,103.0,101.0,13.3,1505.2,330.5,-0.8,1.8,2471.083,13.29,0.024,305.0
2022-11-13T01:43:03,42.805,6.029,-0.016,0.005,-0.004,102.0,103.0,101.0,13.4,1505.2,329.0,-0.8,1.8,2471.084,13.29,0.016,287.4
2022-11-13T01:46:03,42.805,6.029,-0.009,0.034,0.008,101.0,102.0,101.0,13.4,1505.2,330.4,-0.8,1.8,2471.108,13.29,0.035,345.2
2022-11-13T01:49:03,42.805,6.029,-0.024,0.011,0.013,102.0,102.0,100.0,13.4,1505.2,327.9,-0.8,1.8,2471.091,13.29,0.026,294.6
2022-11-13T01:52:03,42.805,6.029,-0.053,0.032,-0.007,103.0,102.0,101.0,13.3,1505.2,326.9,-0.7,1.8,2471.069,13.29,0.061,301.1
2022-11-13T01:55:03,42.805,6.029,-0.022,0.006,0.009,103.0,102.0,100.0,13.4,1505.2,321.4,-0.8,1.8,2471.09,13.29,0.022,285.3
2022-11-13T01:58:03,42.805,6.029,-0.036,0.023,-0.007,101.0,104.0,102.0,13.4,1505.2,328.6,-0.8,1.8,2471.097,13.29,0.042,302.6
2022-11-13T02:04:03,42.805,6.029,-0.003,0.028,0.029,102.0,104.0,101.0,13.4,1505.2,335.0,-0.7,1.8,2471.094,13.28,0.028,353.9
2022-11-13T02:07:03,42.805,6.029,-0.023,0.027,0.006,103.0,103.0,101.0,13.4,1505.2,318.1,-0.8,1.8,2471.142,13.29,0.035,319.6
2022-11-13T02:10:03,42.805,6.029,-0.01,0.036,0.008,102.0,103.0,101.0,13.3,1505.2,330.1,-0.8,1.8,2471.092,13.29,0.037,344.5
2022-11-13T02:13:03,42.805,6.029,-0.005,0.0,-0.019,102.0,102.0,100.0,13.3,1505.2,324.5,-0.8,1.8,2471.096,13.29,0.005,270.0
2022-11-13T02:16:03,42.805,6.029,0.006,0.022,0.022,103.0,102.0,101.0,13.4,1505.2,322.0,-0.8,1.8,2471.081,13.29,0.022,15.3
2022-11-13T02:19:03,42.805,6.029,-0.033,0.037,0.016,102.0,104.0,101.0,13.4,1505.2,326.6,-0.8,1.8,2471.063,13.29,0.049,318.3
2022-11-13T02:22:03,42.805,6.029,-0.025,0.014,0.005,103.0,102.0,102.0,13.3,1505.2,326.1,-0.8,1.8,2471.056,13.29,0.028,299.3
2022-11-13T02:25:03,42.805,6.029,-0.04,0.007,0.015,103.0,103.0,101.0,13.4,1505.2,329.9,-0.8,1.8,2471.082,13.29,0.04,279.9
2022-11-13T02:28:03,42.805,6.029,-0.024,0.032,0.016,102.0,103.0,101.0,13.3,1505.2,331.3,-0.8,1.8,2471.11,13.29,0.04,323.1
2022-11-13T02:31:03,42.805,6.029,-0.026,0.031,0.013,103.0,102.0,102.0,13.3,1505.2,331.7,-0.8,1.8,2471.05,13.29,0.04,320.0
2022-11-13T02:34:03,42.805,6.029,-0.011,0.023,0.021,103.0,102.0,101.0,13.4,1505.2,328.5,-0.8,1.8,2471.072,13.29,0.025,334.4
2022-11-13T02:37:03,42.805,6.029,-0.023,0.005,-0.007,102.0,103.0,102.0,13.4,1505.2,320.3,-0.8,1.8,2471.086,13.29,0.023,282.3
2022-11-13T02:40:03,42.805,6.029,-0.009,0.004,0.027,103.0,102.0,101.0,13.4,1505.2,332.7,-0.8,1.8,2471.047,13.29,0.009,294.0
2022-11-13T02:43:03,42.805,6.029,-0.021,0.026,0.019,103.0,101.0,101.0,13.3,1505.2,330.2,-0.8,1.8,2471.044,13.29,0.033,321.1
2022-11-13T02:46:03,42.805,6.029,-0.014,0.031,0.032,101.0,103.0,101.0,13.4,1505.2,324.4,-0.8,1.9,2471.101,13.29,0.034,335.7
2022-11-13T02:49:03,42.805,6.029,-0.01,0.014,0.014,102.0,101.0,101.0,13.4,1505.2,329.4,-0.8,1.8,2471.015,13.29,0.017,324.5
2022-11-13T02:52:03,42.805,6.029,0.0,0.021,0.002,101.0,103.0,100.0,13.4,1505.2,325.0,-0.7,1.8,2471.078,13.29,0.021,0.0
2022-11-13T02:55:03,42.805,6.029,-0.006,0.014,-0.023,102.0,101.0,100.0,13.4,1505.2,317.7,-0.8,1.9,2471.046,13.29,0.015,336.8
2022-11-13T02:58:03,42.805,6.029,-0.03,0.03,0.019,101.0,103.0,100.0,13.4,1505.2,330.6,-0.8,1.8,2471.084,13.29,0.042,315.0
2022-11-13T03:04:03,42.805,6.029,-0.034,0.01,-0.002,101.0,102.0,100.0,13.4,1505.2,325.4,-0.8,1.8,2471.111,13.28,0.035,286.4
2022-11-13T03:07:03,42.805,6.029,-0.026,0.007,0.016,100.0,102.0,101.0,13.3,1505.2,317.9,-0.8,1.8,2471.081,13.28,0.026,285.1
2022-11-13T03:10:03,42.805,6.029,-0.046,0.031,0.004,101.0,101.0,100.0,13.4,1505.2,331.4,-0.7,1.8,2471.096,13.29,0.055,304.0
2022-11-13T03:13:03,42.805,6.029,-0.017,0.026,0.045,100.0,102.0,100.0,13.3,1505.2,323.4,-0.8,1.8,2471.101,13.29,0.031,326.8
2022-11-13T03:16:03,42.805,6.029,-0.001,0.009,0.014,101.0,102.0,100.0,13.4,1505.2,326.1,-0.8,1.8,2471.06,13.29,0.009,353.7
2022-11-13T03:19:03,42.805,6.029,-0.018,0.028,0.027,101.0,102.0,100.0,13.4,1505.2,328.6,-0.7,1.8,2471.067,13.29,0.033,327.3
2022-11-13T03:22:03,42.805,6.029,-0.002,0.032,0.008,99.0,102.0,101.0,13.3,1505.2,335.4,-0.7,1.8,2471.119,13.29,0.032,356.4
2022-11-13T03:25:03,42.805,6.029,0.001,0.029,0.027,99.0,103.0,100.0,13.4,1505.2,317.8,-0.7,1.8,2471.076,13.29,0.029,2.0
2022-11-13T03:28:03,42.805,6.029,0.004,0.016,-0.007,101.0,102.0,98.0,13.4,1505.2,326.8,-0.7,1.8,2471.06,13.29,0.016,14.0
2022-11-13T03:31:03,42.805,6.029,-0.015,0.008,-0.016,100.0,101.0,100.0,13.4,1505.2,332.7,-0.7,1.8,2471.058,13.29,0.017,298.1
2022-11-13T03:34:03,42.805,6.029,-0.022,0.034,-0.005,100.0,102.0,100.0,13.4,1505.2,326.6,-0.8,1.8,2471.08,13.29,0.04,327.1
2022-11-13T03:37:03,42.805,6.029,-0.021,0.018,-0.01,100.0,102.0,100.0,13.4,1505.2,319.8,-0.8,1.8,2471.069,13.29,0.027,310.6
2022-11-13T03:40:03,42.805,6.029,-0.017,0.027,0.009,101.0,101.0,100.0,13.4,1505.2,331.9,-0.8,1.8,2471.083,13.29,0.031,327.8
2022-11-13T03:43:03,42.805,6.029,-0.009,0.032,0.015,100.0,102.0,100.0,13.4,1505.2,334.4,-0.8,1.8,2471.061,13.29,0.033,344.3
2022-11-13T03:46:03,42.805,6.029,-0.002,0.022,0.013,102.0,101.0,100.0,13.3,1505.2,336.1,-0.8,1.8,2471.101,13.29,0.022,354.8
2022-11-13T03:49:03,42.805,6.029,-0.025,0.004,0.004,100.0,101.0,101.0,13.3,1505.2,329.9,-0.8,1.8,2471.054,13.29,0.025,279.1
2022-11-13T03:52:03,42.805,6.029,-0.029,0.007,-0.01,101.0,101.0,100.0,13.4,1505.2,324.2,-0.8,1.8,2471.059,13.29,0.029,283.6
2022-11-13T03:55:03,42.805,6.029,-0.017,0.025,-0.003,101.0,101.0,100.0,13.4,1505.2,325.7,-0.8,1.8,2471.076,13.29,0.03,325.8
2022-11-13T03:58:03,42.805,6.029,-0.02,0.014,0.034,101.0,101.0,100.0,13.4,1505.2,318.2,-0.8,1.8,2471.065,13.29,0.024,305.0
2022-11-13T04:04:03,42.805,6.029,-0.024,0.02,0.037,102.0,102.0,99.0,13.3,1505.2,323.2,-0.7,1.9,2471.103,13.28,0.031,309.8
2022-11-13T04:07:03,42.805,6.029,-0.03,0.018,0.024,100.0,102.0,101.0,13.4,1505.2,323.4,-0.8,1.8,2471.149,13.29,0.034,301.0
2022-11-13T04:10:03,42.805,6.029,-0.033,0.026,0.007,102.0,101.0,99.0,13.4,1505.2,317.8,-0.7,1.8,2471.122,13.29,0.042,308.2
2022-11-13T04:13:03,42.805,6.029,-0.003,0.011,0.011,101.0,102.0,101.0,13.4,1505.2,330.2,-0.8,1.8,2471.091,13.29,0.011,344.7
2022-11-13T04:16:03,42.805,6.029,-0.017,0.034,0.026,101.0,102.0,101.0,13.4,1505.2,321.7,-0.8,1.8,2471.096,13.29,0.038,333.4
2022-11-13T04:19:03,42.805,6.029,-0.03,0.024,-0.004,103.0,101.0,99.0,13.4,1505.2,324.7,-0.8,1.8,2471.084,13.29,0.038,308.7
2022-11-13T04:22:03,42.805,6.029,-0.019,0.027,0.021,101.0,102.0,100.0,13.3,1505.2,321.8,-0.8,1.8,2471.089,13.29,0.033,324.9
2022-11-13T04:25:03,42.805,6.029,-0.008,0.016,0.018,100.0,102.0,101.0,13.4,1505.2,328.7,-0.8,1.8,2471.111,13.29,0.017,333.4
2022-11-13T04:28:03,42.805,6.029,-0.025,0.022,-0.011,101.0,101.0,100.0,13.3,1505.2,322.8,-0.8,1.8,2471.059,13.29,0.033,311.3
2022-11-13T04:31:03,42.805,6.029,-0.042,0.03,0.009,101.0,101.0,100.0,13.3,1505.2,326.3,-0.8,1.8,2471.064,13.29,0.051,305.5
2022-11-13T04:34:03,42.805,6.029,-0.04,0.019,0.015,100.0,102.0,101.0,13.4,1505.2,316.7,-0.8,1.8,2471.074,13.29,0.044,295.4
2022-11-13T04:37:03,42.805,6.029,-0.005,0.023,0.013,100.0,103.0,101.0,13.4,1505.2,323.1,-0.8,1.8,2471.093,13.29,0.023,347.7
2022-11-13T04:40:03,42.805,6.029,-0.006,0.03,0.023,102.0,101.0,100.0,13.4,1505.2,332.5,-0.7,1.8,2471.052,13.29,0.03,348.7
2022-11-13T04:43:03,42.805,6.029,-0.003,0.01,0.0,101.0,102.0,100.0,13.4,1505.2,335.8,-0.8,1.8,2471.127,13.29,0.01,343.3
2022-11-13T04:46:03,42.805,6.029,-0.019,0.004,-0.014,101.0,102.0,100.0,13.4,1505.2,321.5,-0.7,1.8,2471.091,13.29,0.019,281.9
2022-11-13T04:49:03,42.805,6.029,-0.012,0.002,-0.003,103.0,100.0,101.0,13.4,1505.2,319.1,-0.8,1.8,2471.064,13.29,0.012,279.5
2022-11-13T04:52:03,42.805,6.029,-0.03,0.028,0.007,100.0,103.0,101.0,13.3,1505.2,332.0,-0.7,1.8,2471.087,13.29,0.041,313.0
2022-11-13T04:55:03,42.805,6.029,-0.023,0.033,0.029,102.0,102.0,101.0,13.3,1505.2,325.1,-0.7,1.8,2471.098,13.29,0.04,325.1
2022-11-13T04:58:03,42.805,6.029,-0.018,0.036,0.001,102.0,101.0,100.0,13.4,1505.2,333.7,-0.8,1.8,2471.065,13.29,0.04,333.4
2022-11-13T05:04:03,42.805,6.029,-0.01,0.031,0.032,100.0,101.0,100.0,13.4,1505.2,332.2,-0.8,1.8,2471.127,13.28,0.032,342.1
2022-11-13T05:07:03,42.805,6.029,-0.046,0.032,0.0,101.0,103.0,100.0,13.4,1505.2,318.5,-0.8,1.8,2471.139,13.29,0.056,304.8
2022-11-13T05:10:03,42.805,6.029,-0.019,0.027,0.021,101.0,101.0,100.0,13.3,1505.2,336.9,-0.8,1.8,2471.134,13.29,0.033,324.9
2022-11-13T05:13:03,42.805,6.029,-0.024,0.016,-0.001,102.0,102.0,100.0,13.4,1505.2,329.5,-0.8,1.8,2471.079,13.29,0.028,303.7
2022-11-13T05:16:03,42.805,6.029,-0.017,0.017,0.045,102.0,100.0,101.0,13.4,1505.2,328.0,-0.8,1.8,2471.096,13.29,0.024,315.0
2022-11-13T05:19:03,42.805,6.029,-0.016,0.037,0.039,102.0,102.0,101.0,13.3,1505.2,321.7,-0.8,1.8,2471.096,13.29,0.04,336.6
2022-11-13T05:22:03,42.805,6.029,-0.009,0.014,-0.005,101.0,102.0,101.0,13.4,1505.2,325.7,-0.8,1.8,2471.12,13.29,0.016,327.3
2022-11-13T05:25:03,42.805,6.029,-0.011,0.022,0.006,102.0,101.0,100.0,13.4,1505.2,333.4,-0.8,1.8,2471.07,13.29,0.024,333.4
2022-11-13T05:28:03,42.805,6.029,0.006,0.036,0.029,101.0,101.0,101.0,13.4,1505.2,332.7,-0.8,1.8,2471.093,13.29,0.036,9.5
2022-11-13T05:31:03,42.805,6.029,-0.035,0.027,0.003,104.0,103.0,100.0,13.3,1505.2,321.4,-0.7,1.8,2471.1,13.29,0.044,307.7
2022-11-13T05:34:03,42.805,6.029,-0.041,-0.013,-0.004,102.0,102.0,100.0,13.4,1505.2,322.6,-0.8,1.8,2471.145,13.29,0.043,252.4
2022-11-13T05:37:03,42.805,6.029,-0.006,0.013,0.0,103.0,101.0,100.0,13.4,1505.2,323.2,-0.8,1.8,2471.112,13.29,0.014,335.2
2022-11-13T05:40:03,42.805,6.029,-0.037,0.029,0.035,102.0,103.0,100.0,13.4,1505.2,328.7,-0.8,1.8,2471.125,13.29,0.047,308.1
2022-11-13T05:43:03,42.805,6.029,-0.03,0.02,-0.036,101.0,103.0,101.0,13.4,1505.2,322.9,-0.8,1.8,2471.118,13.29,0.036,303.7
2022-11-13T05:46:03,42.805,6.029,-0.02,0.013,-0.014,103.0,102.0,100.0,13.4,1505.2,316.3,-0.8,1.8,2471.093,13.29,0.023,303.0
2022-11-13T05:49:03,42.805,6.029,-0.04,0.039,0.041,102.0,102.0,100.0,13.3,1505.2,317.7,-0.8,1.8,2471.092,13.29,0.055,314.3
2022-11-13T05:52:03,42.805,6.029,-0.015,0.007,0.024,101.0,103.0,101.0,13.3,1505.2,321.1,-0.7,1.8,2471.083,13.29,0.016,295.0
2022-11-13T05:55:03,42.805,6.029,-0.02,0.016,-0.026,101.0,101.0,101.0,13.4,1505.2,335.1,-0.8,1.8,2471.075,13.29,0.025,308.7
2022-11-13T05:58:03,42.805,6.029,0.009,0.006,0.027,101.0,102.0,101.0,13.4,1505.2,333.7,-0.7,1.8,2471.124,13.29,0.01,56.3
2022-11-13T06:04:02,42.805,6.029,-0.035,0.013,-0.024,102.0,102.0,101.0,13.4,1505.2,322.0,-0.8,1.8,2471.148,13.29,0.037,290.4
2022-11-13T06:07:03,42.805,6.029,-0.014,0.02,-0.003,105.0,102.0,102.0,13.3,1505.2,333.0,-0.8,1.8,2471.158,13.29,0.024,325.0
2022-11-13T06:10:03,42.805,6.029,0.012,0.002,0.008,102.0,102.0,101.0,13.4,1505.2,318.6,-0.8,1.8,2471.155,13.29,0.012,80.5
2022-11-13T06:13:03,42.805,6.029,-0.037,0.013,-0.005,101.0,102.0,102.0,13.4,1505.2,320.6,-0.8,1.8,2471.147,13.29,0.039,289.4
2022-11-13T06:16:03,42.805,6.029,-0.009,0.025,0.022,103.0,102.0,100.0,13.3,1505.2,321.4,-0.8,1.8,2471.158,13.29,0.026,340.2
2022-11-13T06:19:03,42.805,6.029,-0.016,-0.003,-0.012,102.0,103.0,101.0,13.4,1505.2,326.3,-0.8,1.8,2471.173,13.29,0.016,259.4
2022-11-13T06:22:03,42.805,6.029,-0.02,0.012,0.006,102.0,103.0,102.0,13.3,1505.2,325.9,-0.8,1.8,2471.117,13.29,0.023,301.0
2022-11-13T06:25:03,42.805,6.029,-0.015,-0.005,-0.013,102.0,102.0,101.0,13.4,1505.2,326.9,-0.8,1.8,2471.117,13.29,0.015,251.6
2022-11-13T06:28:03,42.805,6.029,-0.036,0.014,0.018,102.0,101.0,102.0,13.4,1505.2,318.1,-0.7,1.8,2471.112,13.29,0.038,291.2
2022-11-13T06:31:03,42.805,6.029,-0.023,0.018,0.02,103.0,102.0,101.0,13.4,1505.2,324.2,-0.8,1.8,2471.134,13.29,0.029,308.0
2022-11-13T06:34:03,42.805,6.029,-0.032,0.027,0.003,102.0,103.0,101.0,13.4,1505.2,328.7,-0.8,1.8,2471.158,13.29,0.041,310.2
2022-11-13T06:37:03,42.805,6.029,-0.021,-0.002,-0.006,103.0,103.0,100.0,13.3,1505.2,319.0,-0.8,1.8,2471.142,13.29,0.021,264.6
2022-11-13T06:40:03,42.805,6.029,-0.032,0.02,0.02,102.0,102.0,101.0,13.4,1505.2,320.7,-0.8,1.8,2471.168,13.29,0.037,302.0
2022-11-13T06:43:03,42.805,6.029,-0.004,0.02,-0.027,102.0,103.0,100.0,13.4,1505.2,334.3,-0.8,1.8,2471.14,13.29,0.02,348.7
2022-11-13T06:46:03,42.805,6.029,-0.026,0.024,0.002,103.0,102.0,102.0,13.4,1505.2,331.8,-0.7,1.8,2471.156,13.29,0.035,312.7
2022-11-13T06:49:03,42.805,6.029,-0.027,0.011,-0.009,101.0,103.0,101.0,13.4,1505.2,326.9,-0.8,1.8,2471.179,13.29,0.029,292.2
2022-11-13T06:52:03,42.805,6.029,-0.028,0.022,0.026,105.0,103.0,101.0,13.4,1505.2,325.2,-0.8,1.8,2471.135,13.29,0.035,308.2
2022-11-13T06:55:03,42.805,6.029,-0.02,0.027,0.014,103.0,101.0,101.0,13.4,1505.2,331.8,-0.8,1.9,2471.139,13.29,0.033,323.5
2022-11-13T06:58:03,42.805,6.029,-0.029,0.014,0.017,102.0,103.0,100.0,13.4,1505.2,326.7,-0.8,1.8,2471.21,13.29,0.032,295.8
2022-11-13T07:04:03,42.805,6.029,-0.025,0.022,0.026,101.0,104.0,101.0,13.4,1505.2,319.4,-0.8,1.8,2471.249,13.28,0.033,311.3
2022-11-13T07:07:03,42.805,6.029,-0.035,0.019,0.004,104.0,103.0,100.0,13.4,1505.2,329.8,-0.8,1.8,2471.248,13.29,0.039,298.5
2022-11-13T07:10:03,42.805,6.029,-0.035,0.023,-0.01,102.0,103.0,101.0,13.4,1505.2,327.9,-0.8,1.8,2471.265,13.29,0.041,303.3
2022-11-13T07:13:03,42.805,6.029,-0.031,0.018,-0.004,102.0,102.0,101.0,13.3,1505.2,334.0,-0.7,1.8,2471.184,13.29,0.035,300.1
2022-11-13T07:16:03,42.805,6.029,-0.037,0.017,0.006,103.0,103.0,101.0,13.3,1505.2,316.3,-0.7,1.8,2471.2,13.29,0.04,294.7
2022-11-13T07:19:03,42.805,6.029,-0.015,0.003,-0.003,102.0,103.0,100.0,13.3,1505.2,319.4,-0.8,1.8,2471.231,13.29,0.015,281.3
2022-11-13T07:22:03,42.805,6.029,-0.029,0.004,-0.02,104.0,102.0,102.0,13.4,1505.2,330.2,-0.8,1.8,2471.174,13.29,0.029,277.8
2022-11-13T07:25:03,42.805,6.029,-0.034,0.011,0.001,102.0,102.0,102.0,13.3,1505.2,324.4,-0.8,1.8,2471.2,13.29,0.035,287.9
2022-11-13T07:28:03,42.805,6.029,-0.014,0.024,0.023,104.0,104.0,100.0,13.4,1505.2,325.2,-0.8,1.8,2471.204,13.29,0.027,329.7
2022-11-13T07:31:03,42.805,6.029,-0.015,0.0,0.002,101.0,103.0,102.0,13.4,1505.2,322.1,-0.7,1.8,2471.212,13.29,0.015,270.0
2022-11-13T07:34:03,42.805,6.029,-0.032,0.009,-0.021,103.0,103.0,102.0,13.4,1505.2,324.8,-0.7,1.8,2471.201,13.29,0.033,285.7
2022-11-13T07:37:03,42.805,6.029,-0.03,0.015,0.022,102.0,103.0,101.0,13.4,1505.2,323.0,-0.8,1.8,2471.224,13.29,0.033,296.6
2022-11-13T07:40:03,42.805,6.029,-0.012,0.007,-0.004,104.0,104.0,102.0,13.4,1505.2,322.4,-0.7,1.8,2471.23,13.29,0.013,300.3
2022-11-13T07:43:03,42.805,6.029,-0.021,0.003,-0.017,102.0,103.0,101.0,13.3,1505.2,329.7,-0.7,1.8,2471.228,13.29,0.021,278.1
2022-11-13T07:46:03,42.805,6.029,-0.026,0.019,-0.03,103.0,103.0,101.0,13.4,1505.2,330.4,-0.7,1.8,2471.193,13.29,0.032,306.2
2022-11-13T07:49:03,42.805,6.029,-0.022,0.015,-0.006,102.0,104.0,102.0,13.3,1505.2,335.4,-0.7,1.8,2471.183,13.29,0.026,304.3
2022-11-13T07:52:03,42.805,6.029,-0.026,0.006,-0.008,102.0,103.0,102.0,13.4,1505.2,329.1,-0.8,1.8,2471.214,13.29,0.026,283.0
2022-11-13T07:55:03,42.805,6.029,-0.019,0.028,-0.01,102.0,103.0,102.0,13.4,1505.2,334.7,-0.7,1.8,2471.228,13.29,0.033,325.8
2022-11-13T07:58:03,42.805,6.029,-0.013,0.019,0.023,103.0,102.0,102.0,13.4,1505.2,333.4,-0.8,1.8,2471.202,13.29,0.023,325.6
2022-11-13T08:04:03,42.805,6.029,-0.045,0.023,0.022,103.0,104.0,101.0,13.4,1505.2,320.8,-0.8,1.8,2471.281,13.29,0.05,297.1
2022-11-13T08:07:03,42.805,6.029,-0.025,0.029,-0.006,103.0,103.0,100.0,13.4,1505.2,329.2,-0.8,1.8,2471.257,13.29,0.038,319.2
2022-11-13T08:10:03,42.805,6.029,-0.024,0.005,-0.019,102.0,103.0,101.0,13.4,1505.2,330.3,-0.8,1.8,2471.269,13.29,0.024,281.8
2022-11-13T08:13:03,42.805,6.029,-0.032,0.005,0.01,103.0,103.0,101.0,13.4,1505.2,322.8,-0.7,1.8,2471.264,13.29,0.032,278.9
2022-11-13T08:16:03,42.805,6.029,-0.02,0.019,0.008,104.0,103.0,102.0,13.4,1505.2,321.2,-0.8,1.8,2471.268,13.29,0.027,313.5
2022-11-13T08:19:03,42.805,6.029,-0.028,0.033,0.0,103.0,102.0,102.0,13.4,1505.2,329.9,-0.8,1.8,2471.231,13.29,0.043,319.7
2022-11-13T08:22:03,42.805,6.029,-0.008,0.019,0.004,102.0,103.0,101.0,13.4,1505.2,330.3,-0.7,1.8,2471.235,13.29,0.02,337.2
2022-11-13T08:25:03,42.805,6.029,-0.017,0.014,0.027,103.0,103.0,101.0,13.4,1505.2,322.4,-0.8,1.8,2471.291,13.29,0.022,309.5
2022-11-13T08:28:03,42.805,6.029,-0.006,0.024,0.0,103.0,103.0,101.0,13.3,1505.2,321.1,-0.8,1.8,2471.262,13.29,0.024,346.0
2022-11-13T08:31:03,42.805,6.029,-0.026,0.022,-0.032,102.0,104.0,100.0,13.4,1505.2,331.0,-0.7,1.8,2471.251,13.29,0.034,310.2
2022-11-13T08:34:03,42.805,6.029,-0.013,0.021,-0.002,102.0,102.0,103.0,13.4,1505.2,330.4,-0.7,1.8,2471.267,13.29,0.024,328.2
2022-11-13T08:37:03,42.805,6.029,-0.04,0.014,0.016,102.0,103.0,101.0,13.3,1505.2,326.3,-0.8,1.8,2471.232,13.29,0.042,289.3
2022-11-13T08:40:03,42.805,6.029,-0.026,0.021,0.009,102.0,103.0,101.0,13.4,1505.2,318.1,-0.8,1.8,2471.252,13.29,0.033,308.9
2022-11-13T08:43:03,42.805,6.029,-0.016,0.016,0.015,103.0,102.0,101.0,13.4,1505.2,328.1,-0.8,1.8,2471.256,13.29,0.022,315.0
2022-11-13T08:46:03,42.805,6.029,-0.039,0.025,0.004,104.0,104.0,100.0,13.4,1505.2,326.5,-0.8,1.8,2471.268,13.29,0.046,302.7
2022-11-13T08:49:03,42.805,6.029,-0.015,0.02,0.008,103.0,101.0,101.0,13.4,1505.2,328.7,-0.8,1.8,2471.252,13.29,0.025,323.1
2022-11-13T08:52:03,42.805,6.029,-0.018,0.008,-0.005,102.0,103.0,100.0,13.4,1505.2,328.3,-0.8,1.8,2471.23,13.29,0.019,294.0
2022-11-13T08:55:03,42.805,6.029,-0.037,0.023,-0.014,103.0,103.0,100.0,13.4,1505.2,326.6,-0.8,1.8,2471.257,13.29,0.043,301.9
2022-11-13T08:58:03,42.805,6.029,-0.027,0.027,-0.013,101.0,103.0,102.0,13.4,1505.2,319.8,-0.8,1.8,2471.261,13.29,0.038,315.0
2022-11-13T09:04:03,42.805,6.029,-0.014,0.009,0.003,103.0,103.0,101.0,13.3,1505.2,324.2,-0.7,1.8,2471.343,13.29,0.016,302.7
2022-11-13T09:07:03,42.805,6.029,-0.009,0.022,0.011,103.0,103.0,100.0,13.4,1505.2,325.0,-0.8,1.8,2471.294,13.29,0.023,337.8
2022-11-13T09:10:03,42.805,6.029,-0.041,0.015,0.003,102.0,102.0,101.0,13.4,1505.2,330.9,-0.7,1.8,2471.297,13.29,0.043,290.1
2022-11-13T09:13:03,42.805,6.029,-0.055,0.037,-0.012,101.0,103.0,102.0,13.4,1505.2,333.4,-0.8,1.8,2471.311,13.29,0.066,303.9
2022-11-13T09:16:03,42.805,6.029,-0.029,0.028,-0.014,102.0,103.0,101.0,13.4,1505.2,328.2,-0.8,1.8,2471.277,13.29,0.04,314.0
2022-11-13T09:19:03,42.805,6.029,-0.015,0.034,0.007,102.0,102.0,101.0,13.4,1505.2,325.1,-0.7,1.8,2471.294,13.29,0.037,336.2
2022-11-13T09:22:03,42.805,6.029,-0.029,0.011,0.014,102.0,102.0,102.0,13.4,1505.2,324.3,-0.8,1.8,2471.278,13.29,0.031,290.8
2022-11-13T09:25:03,42.805,6.029,-0.015,0.026,0.0,102.0,102.0,101.0,13.4,1505.2,329.6,-0.7,1.8,2471.284,13.29,0.03,330.0
2022-11-13T09:28:03,42.805,6.029,-0.019,0.014,0.002,102.0,102.0,101.0,13.4,1505.2,325.8,-0.8,1.8,2471.306,13.29,0.023,306.4
2022-11-13T09:31:03,42.805,6.029,-0.028,0.016,-0.022,102.0,103.0,102.0,13.4,1505.2,326.7,-0.8,1.8,2471.293,13.29,0.032,299.7
2022-11-13T09:34:03,42.805,6.029,-0.047,0.019,0.028,103.0,103.0,102.0,13.4,1505.2,324.8,-0.8,1.8,2471.268,13.29,0.05,292.0
2022-11-13T09:37:03,42.805,6.029,-0.029,0.031,0.0,102.0,103.0,101.0,13.4,1505.2,329.6,-0.8,1.8,2471.287,13.29,0.042,316.9
2022-11-13T09:40:03,42.805,6.029,-0.049,0.014,0.03,102.0,102.0,101.0,13.3,1505.2,326.4,-0.8,1.8,2471.252,13.29,0.05,285.9
2022-11-13T09:43:03,42.805,6.029,-0.021,0.033,0.019,102.0,103.0,102.0,13.4,1505.2,327.7,-0.7,1.8,2471.258,13.29,0.039,327.5
2022-11-13T09:46:03,42.805,6.029,-0.03,-0.001,-0.002,103.0,103.0,100.0,13.3,1505.2,320.2,-0.8,1.8,2471.273,13.29,0.03,268.1
2022-11-13T09:49:03,42.805,6.029,0.0,0.027,0.013,102.0,103.0,100.0,13.4,1505.2,334.4,-0.8,1.8,2471.243,13.29,0.026,0.0
2022-11-13T09:52:03,42.805,6.029,-0.029,0.023,-0.02,101.0,103.0,101.0,13.3,1505.2,332.5,-0.8,1.8,2471.266,13.29,0.037,308.4
2022-11-13T09:55:03,42.805,6.029,-0.021,0.024,0.007,103.0,103.0,101.0,13.4,1505.2,331.0,-0.8,1.8,2471.327,13.29,0.031,318.8
2022-11-13T09:58:03,42.805,6.029,-0.025,0.016,0.01,102.0,103.0,100.0,13.3,1505.2,319.4,-0.8,1.8,2471.286,13.29,0.029,302.6